User: anonymous   Login
Location: Newark
(48.3453°N, 0.5589°E)
Time: 22:49:41
(UTC+00:00)
Language:

Transit 2A - Orbit

View from above orbital plane
View from above orbital plane
View from above satellite
View from above satellite

Ground track
Ground track

The orbit data is extracted from the following two-line orbital elements,

1    45U 60007A   19340.51120207 -.00000040  00000-0  16795-4 0  9994
2    45  66.6927 171.9865 0248169  97.0328 265.9063 14.33658672 94901
Epoch (UTC): 06 December 2019 12:16:07
Eccentricity: 0.0248169
inclination: 66.6927°
perigee height: 602 km
apogee height: 957 km
right ascension of ascending node: 171.9865°
argument of perigee: 97.0328°
revolutions per day: 14.33658672
mean anomaly at epoch: 265.9063°
orbit number at epoch: 9490

The dashed part of the orbit path shows where the satellite is in the earth's shadow,  

DLR